Terminal Aerodrome Forecast
Issued by NWS Raleigh/Durham, NC

Home | Current Version | Previous Version | Text Only | Print | Product List | Glossary On
Versions: 1 2 3 4 5 6 7 8 9 10 11 12 13 14 15 16 17 18 19 20 21 22 23 24 25 26 27 28 29 30 31 32 33 34 35 36 37 38 39 40 41 42 43 44 45 46 47 48 49 50
000
FTUS42 KRAH 010848 AAA
TAFRDU
TAF AMD
KRDU 010848Z 0109/0206 05004KT 6SM BR VCSH SCT015 OVC080
      TEMPO 0109/0112 3SM BR BKN006
     FM011300 05008G16KT P6SM SCT020 OVC070
     FM011600 05009G16KT P6SM -SHRA OVC035=

USA.gov is the U.S. government's official web portal to all federal, state and local government web resources and services.